triatlon
03/03/2012

Podio albiceleste

La semana pasada se colgó la medalla de plata en la etapa celebrada en Perú y hoy sábado, apenas siete días después, trepó a la cima del podio escoltado por otro compatriota para teñir el podio de celeste y blanco. En otra jornada exitosa para el deporte argentino, el juvenil porteño Luciano Taccone ganó la Copa Panamericana de Ecuador en las playas de Salinas donde el bonaerense Rodrigo Noguers obtuvo la presea de bronce.

Actual campeón panamericano de categoría Sub-23 gracias a su victoria en el entrerriano Triatlón de La Paz, Luciano Taccone arribó primero entre un total de veintiocho participantes de la categoría elite profesional al cronometrar 1 hora, 47 minutos y 47 segundos para los 1.500 metros de natación, 40 kilómetros de ciclismo en pelotón y 10 más a pie. Tras emerger en 19m53s, en apenas veinte segundos se colocó el casco y los zapatos para subirse a la bicicleta con la que pedaleó en 55m38s. La segunda transición en el parque cerrado le insumió doce segundos y remató con un parcial pedestre de 31m42s que ratificó su potencial en los 10K donde viene registrando marcas dignas de un atleta de calle. Así relegó al segundo puesto -por tres segundos- al inglés Mark Buckingham seguido del bonaerense Rodrigo Nogueras, tercero en Lima y que ahora sumó su segundo bronce consecutivo, esta vez en 1h47m55s a ocho segundos del puntero. El Top-5 se completó con el quinto puesto del sanjuanino Gonzalo Tellechea que cruzó la meta en 1h48m36s por delante del número uno chileno, Felipe Van de Wyngard. A su vez, el mendocino Luciano Farías finalizó décimo con 1h50m10s.

Entre las mujeres, la delegación argentina contó con tres embajadores y dos de ellas ingresaron al Top-10 ya que la cordobesa Romina Biagioli y la bonaerense Romina Palacio Balena, actual campeona y subcampeona nacional de triatlón de distancia olímpico con drafting, finalizaron sexta y décima con 2h03m54s y 2h06m38s respectivamente. La también bonaerense Rayén Asselborn culminó 15º con 2h29m38s. (Foto: Elisa Cárdenas)

Pos First Name Last Name Country Time Swim T1 Bike T2 Run
1 Luciano Taccone ARG AR 01:47:47 00:19:53 00:00:20 00:55:38 00:00:12 00:31:42
2 Mark Buckingham GBR GB 01:47:50 00:19:23 00:00:24 00:56:10 00:00:16 00:31:38
3 Rodrigo Nogueras ARG AR 01:47:55 00:20:01 00:00:23 00:55:33 00:00:14 00:31:45
4 Matthew Gunby GBR GB 01:48:27 00:19:59 00:00:23 00:55:37 00:00:14 00:32:16
5 Gonzalo Raul Tellechea ARG AR 01:48:36 00:19:25 00:00:25 00:56:05 00:00:14 00:32:27
6 Felipe Van de Wyngard CHI CL 01:49:03 00:19:23 00:00:24 00:56:12 00:00:13 00:32:52
7 Dan Alterman ISR IL 01:49:31 00:19:23 00:00:21 00:56:10 00:00:14 00:33:21
8 Gregory Billington USA US 01:49:33 00:19:23 00:00:26 00:56:13 00:00:13 00:33:19
9 Jonathan Daza COL CO 01:50:03 00:20:02 00:00:23 00:55:36 00:00:10 00:33:54
10 Luciano Farias ARG AR 01:50:10 00:19:18 00:00:24 00:56:19 00:00:12 00:33:59
11 Michel Gonzalez CUB CU 01:50:22 00:19:19 00:00:24 00:56:14 00:00:12 00:34:13
12 Csaba Rendes HUN HU 01:50:42 00:19:19 00:00:21 00:56:17 00:00:13 00:34:31
13 Harry Wiltshire GBR GB 01:51:13 00:19:18 00:00:25 00:56:17 00:00:13 00:35:21
14 Jens Toft DEN DK 01:52:09 00:19:21 00:00:21 00:56:13 00:00:14 00:36:01
15 Jorge Arias COL CO 01:52:57 00:19:22 00:00:24 00:56:14 00:00:16 00:36:45
16 Lawrence Fanous JOR JO 01:54:05 00:19:19 00:00:21 00:56:18 00:00:15 00:37:51
17 Billy Gordon PAN PA 01:58:29 00:19:25 00:00:24 00:56:18 00:00:13 00:45:04
18 Nick Beer GBR GB 01:59:43 00:19:22 00:00:26 00:55:27 00:00:18 00:46:19
19 Luiggi Landivar ECU EC 02:02:36 00:20:10 00:00:25 00:56:23 00:00:13 00:48:13
20 Dominguez camilo PAN PA 02:05:05 00:20:40 00:00:25 00:56:25 00:00:14 00:50:43
21 José Luis Esparza Alvear ECU EC 02:07:05 00:22:47 00:00:26 00:52:49 00:00:18 00:50:45
DSQ Juan Jose Andrade Figueroa ECU EC 00:00:00 00:19:18 00:00:23 00:56:18 00:00:13 00:33:17
DSQ Valentin Meshcheryakov RUS RU 00:00:00 00:19:16 00:00:23 00:56:17 00:00:18 00:33:00
DSQ Danny Jpsue Morocho Pinos ECU EC 00:00:00 00:21:14 00:00:27 00:55:16 00:00:13 00:49:46
DNS Oscar Erazo ECU EC 00:00:00 00:00:00 00:00:00 00:00:00 00:00:00 00:00:00
DNF Carlos Machare ECU EC 00:00:00 00:19:25 00:00:24 00:00:00 00:00:00 00:00:00
DNS Alberto Piedra CUB CU 00:00:00 00:00:00 00:00:00 00:00:00 00:00:00 00:00:00
DNF Harunobu Sato JPN JP 00:00:00 00:19:55 00:00:24 00:55:51 00:00:26 00:00:00
Pos First Name Last Name Country Time Swim T1 Bike T2 Run
1 Lucy Hall GBR GB 02:00:05 00:19:37 00:00:00 01:00:07 00:00:17 00:39:44
2 Yi Zhang CHN CN 02:03:10 00:20:28 00:00:00 01:04:38 00:00:16 00:37:23
3 Yi Wang CHN CN 02:03:26 00:20:29 00:00:00 01:04:38 00:00:16 00:37:42
4 Vanessa Raw GBR GB 02:03:43 00:20:29 00:00:00 01:04:35 00:00:27 00:37:48
5 Elizabeth Bravo ECU EC 02:03:51 00:21:05 00:00:00 01:04:00 00:00:12 00:38:15
6 Romina Biagioli ARG AR 02:03:54 00:21:02 00:00:00 01:04:02 00:00:20 00:38:08
7 Yuka Sato JPN JP 02:04:32 00:20:04 00:00:00 01:05:02 00:00:16 00:38:52
8 Alia Cardinale Villalobos CRC CR 02:05:43 00:20:59 00:00:00 01:04:02 00:00:17 00:40:03
9 Abbie Thorrington GBR GB 02:06:11 00:20:02 00:00:00 00:59:42 00:00:17 00:45:49
10 Romina Palacio Balena ARG AR 02:06:38 00:21:09 00:00:00 01:04:01 00:00:15 00:40:54
11 Caiping Jiao CHN CN 02:07:57 00:22:27 00:00:00 01:05:28 00:00:17 00:39:24
12 Lisandra Hernandez CUB CU 02:16:02 00:22:17 00:00:00 01:04:21 00:00:16 00:54:06
13 Lorena Imaña PER PE 02:20:22 00:22:34 00:00:00 01:04:26 00:00:17 00:54:52
14 Ana Leidis Arias CUB CU 02:21:47 00:23:29 00:00:00 01:06:01 00:00:17 00:56:17
15 Rayen Asselborn ARG AR 02:29:38 00:24:14 00:00:00 01:07:23 00:00:16 00:58:00
DNF Ting Liu CHN CN 00:00:00 00:22:30 00:00:00 01:05:35 00:00:20 00:00:00
DNS Melina de Monserratt Vieyra Oyola PER PE 00:00:00 00:00:00 00:00:00 00:00:00 00:00:00 00:00:00

Tags: , ,

opinión de los lectores


EL DEPORNAUTA no publicará comentarios inapropiados ni acusaciones infundadas. Tampoco tendrán cabida las opiniones que incluyan insultos o groseras descalificaciones. Los comentarios publicados son de exclusiva responsabilidad de sus autores que podrán ser pasibles de las sanciones legales que correspondan por sus dichos

Deja tu comentario!

mas noticias

El running beneficia al cerebro

Un estudio científico constató que correr aumenta la capacidad intelectual.

running cerebro 1

Se canceló la Vuelta a San Juan

El gobernador provincial suspendió la carrera más importante del ciclismo argentino debido al rebrote de COVID-19.

ciclismo-vuelta-san-juan-2

La marihuana y cocaína ya no son consideradas como dopantes

La Agencia Mundial Anti-Doping modificó su criterio sobre determinadas sustancias ilícitas.

doping 1

Evitá el golpe de calor

Recomendaciones para correr, pedalear y practicar deporte bajo el sol sin sufrir las altas temperaturas.

running lobos 1

Consejos para correr en montaña

Pautas para colgarte la medalla finisher sin sufrir inconvenientes por la altura.

running montana 1

El running da revancha

Se podrá competir en forma individual o postas eligiendo entre dos distancias con bicicleta MTB.

Curso Estructurar Periódico Digital

La Universidad Tecnológica Nacional UTN abrió las inscripciones de su capacitación profesional en creación, administración y edición de sitios web.

afiche curso periodismo estructurar julio 2020

Se canceló la Vuelta a San Juan

El gobernador provincial suspendió la carrera más importante del ciclismo argentino debido al rebrote de COVID-19.

ciclismo-vuelta-san-juan-2

La marihuana y cocaína ya no son consideradas como dopantes

La Agencia Mundial Anti-Doping modificó su criterio sobre determinadas sustancias ilícitas.

doping 1

Bicicleta vs. lumbalgia

Conocé como superar e incluso evitar una dolencia recurrente en quienes practican ciclismo o triatlón..

ciclismo lumbalgia 1

Curso Estructurar Periódico Digital

La Universidad Tecnológica Nacional UTN abrió las inscripciones de su capacitación profesional en creación, administración y edición de sitios web.

afiche curso periodismo estructurar julio 2020

Feliz Día del Ciclista

Una jornada para fanáticos de la bicicleta en memoria de una proeza del deporte argentino.

ciclismo argentina 2

Una mujer hizo historia en el ciclismo

.El deporte de la bicicleta pedalea rumbo a la igualdad de género

ciclismo mujer cyling bicicleta

Un ciclista argentino llegó al circuito profesional europeo

Un joven velocista de 22 años fue contratado por un equipo de categoría Continental UCI.

contte ciclismo cycling bicicletas ruta

La marihuana y cocaína ya no son consideradas como dopantes

La Agencia Mundial Anti-Doping modificó su criterio sobre determinadas sustancias ilícitas.

doping 1

Michael Phelps correrá un Triatlón IRONMAN

El N°1 de la historia de la natación anhela graduarse de hombre de hierro.

phelps 1

Volvió la natación argentina, volvieron los récords

La actividad competitiva retornó con dos récords nacionales absolutos tras la pandemia de COVID-19.

ceballos natacion swim record

Curso Estructurar Periódico Digital

La Universidad Tecnológica Nacional UTN abrió las inscripciones de su capacitación profesional en creación, administración y edición de sitios web.

afiche curso periodismo estructurar julio 2020

Muy joven, muy veloz

Una adolescente de 19 años batió un récord mundial de natación en pileta.

record natacion swim 2

Las brazadas más rápidas son argentinas

Julia Sebastián estableció los nuevos récords sudamericanos de 100 y 200 metros estilo pecho.

julia sebastian natacion swim pileta

Beneficios de la semilla de Chía

Un alimento natural, proteico, multivitamínico y energético para atletas de larga distancia.

chia 1

El running beneficia al cerebro

Un estudio científico constató que correr aumenta la capacidad intelectual.

running cerebro 1

El triatlón derrotó al COVID-19

Un total de 135 competidores cruzaron la meta del Sprint de Potrerillos en Mendoza.

triatlon mendoza 1

Aprovechá el tiempo, entrená mejor

Pautas para preparar un triatlón sin descuidar el trabajo, los estudios ni la familia.

diez sebastian 1

La marihuana y cocaína ya no son consideradas como dopantes

La Agencia Mundial Anti-Doping modificó su criterio sobre determinadas sustancias ilícitas.

doping 1

Evitá el golpe de calor

Recomendaciones para correr, pedalear y practicar deporte bajo el sol sin sufrir las altas temperaturas.

running lobos 1

Entrenamiento funcional para triatlón

Guía práctica para combinar natación, ciclismo y running.

triatlon 2

Michael Phelps correrá un Triatlón IRONMAN

El N°1 de la historia de la natación anhela graduarse de hombre de hierro.

phelps 1

Consejos para correr en montaña

Pautas para colgarte la medalla finisher sin sufrir inconvenientes por la altura.

running montana 1

Curso Estructurar Periódico Digital

La Universidad Tecnológica Nacional UTN abrió las inscripciones de su capacitación profesional en creación, administración y edición de sitios web.

afiche curso periodismo estructurar julio 2020

Adiós fascitis plantar

Conocé como superar e incluso preverir una dolencia recurrente en corredores y triatletas.

running generico 1

El N°1 del trail running no reinó en atletismo

El ultramaratonista Kilian Jornet no batió el récord mundial de 24 horas en pista.

kilian jornet running atletismo maratón 1

Preparación para pedalear grandes distancias

Alimentación, mecánica y entrenamiento para mejorar tu rendimiento en carreras o salidas de ciclismo MTB con muchos kilómetros.

mtb 1

Beneficios de la semilla de Chía

Un alimento natural, proteico, multivitamínico y energético para atletas de larga distancia.

chia 1

Día del Periodista Deportivo

Agradecemos a lo lectores y anunciantes que nos posicionaron como en el diario digital Nº1 de habla hispana sobre nadar; correr y pedalear.

radio bandera microfono 1

Zancada veloz

El campeón olímpico y mundial Mo Farah volvió a destrozar el cronómetro tras su récord de la hora en pista.

mo farah running 21k maraton race 1

De hierro e invencible

Mario Díaz ganó por tercera vez consecutiva el Triatlón Iron Santiago con récord del circuito. RESULTADOS

diaz mario triatlon ironman

Buenas noticias, buena música

Audio del programa Nº193 de Eldepornauta RADIO con información de ciclismo, natación, running y triatlón.

radio shimano depornauta 3 baja

Resultados Medio Maratón Junín

Clasificación oficial de la décimosexta edición de los 21K bonaerenses incluyendo la prueba integración de 7.400 metros.

21k junin 1

Clasificación Maratón de Reyes

Resultados oficiales de la rama femenina de la 34º edición de los 10K de Concordia.

maraton reyes concordia mujeres 1

Resultados Medio Maratón Junín

Clasificación oficial completa de la décimoquinta edición de los 21K bonaerenses incluyendo cada una de las categorías de edad.

21k junin 6

Resultados Triatlón Junín

Clasificación oficial de la prueba bonaerense tanto en distancia olímpica como en modalidad sprint.

triatlon junin ciclismo 1

Se hizo justicia

El ciclista olímpico Maxi Richeze podrá competir en el mundial de ruta tras ser dejado afuera de la selección argentina.

richeze maxi 1

Le falta una pierna, le sobra velocidad

Un ciclista amputado de 45 años estableció un nuevo récord mundial.

colin2a

Aprovechá el tiempo, entrená mejor

Pautas para preparar un triatlón sin descuidar el trabajo, los estudios ni la familia.

diez sebastian 1

Evitá el golpe de calor

Recomendaciones para correr, pedalear y practicar deporte bajo el sol sin sufrir las altas temperaturas.

running lobos 1

Consejos para correr en montaña

Pautas para colgarte la medalla finisher sin sufrir inconvenientes por la altura.

running montana 1

Bicicleta vs. lumbalgia

Conocé como superar e incluso evitar una dolencia recurrente en quienes practican ciclismo o triatlón..

ciclismo lumbalgia 1

Curso Estructurar Periódico Digital

La Universidad Tecnológica Nacional UTN abrió las inscripciones de su capacitación profesional en creación, administración y edición de sitios web.

afiche curso periodismo estructurar julio 2020

Adiós fascitis plantar

Conocé como superar e incluso preverir una dolencia recurrente en corredores y triatletas.

running generico 1

Feliz Día del Ciclista

Una jornada para fanáticos de la bicicleta en memoria de una proeza del deporte argentino.

ciclismo argentina 2

Curso de Alimentación y Nutrición en Running

La Universidad Tecnológica Nacional te capacita en armado de planes alimenticios personalizados.

Cursos-UTN-S-Alimentación-y-nutrición-en-running-v2-770x415

5.806 corredores descalificados por tramposos

Sanción masiva para quienes cortaron camino en uno de los maratones más importantes del mundo.

maraton mexico 1

A correr sin disfraces ni mochilas

En el Maratón de Boston se aplicarán restricciones a los atletas para reforzar la seguridad tras el atentado que el año pasado causó 3 muertes y 200 heridos.

maraton boston elite mujeres

42 Km. a 3.600 metros de altura

El corredor boliviano Eduardo Aruquipa se impuso en la primera edición del Maratón por La Paz.

aruquipa

A la noche también se corre

Alexander de los Santos ganó los 8K Energizer Night Race en Punta del Este donde la marplatense Belén Casetta triunfó entre las mujeres.

energizer-nocturna-punta-del-este-1

“La Celeste te conmueve”

Desde la ciudad de Piriápolis donde integra la comisión asesora de ciclismo MTB, Juan Lemos brindó su visión de la clasificación de Uruguay a las semifinales de la Copa del Mundo de fútbol Sudáfrica 2010.

1.587 kilómetros a pura acción

Como parte del circuito América Pro Tour, la Vuelta Ciclista a Uruguay reunirá a las mejores figuras locales junto a catorce equipos extranjeros de la Argentina, Brasil, Canadá, Cuba, Eslovaquia, Estados Unidos, España, Polonia y Puerto Rico.

Feliz Día del Amigo para todos los depornautas

Saludamos a nuestros lectores y oyentes que son una legión de campeones mundiales de la amistad.

amigos-running-1

Alimentación antes, durante y después del maratón

Pautas nutricionales para lograr el máximo rendimiento físico con una mejor recuperación muscular.

hidratacion maraton 2

Consejos para correr 21K

La bicampeona argentina de maratón Mónica Cervera explicó como prepararse los días previos a la largada y como encarar las pruebas de larga distancia.

cervera 1

Habrá más triatlón en Mar del Plata

Fundador de ISSports, Hernán Ibáñez adelantó novedades de las carreras programadas para esta temporada.

triatlon mar del plata 2

“Formamos nuevos talentos”

Titular de la Asociación Mendocina de Triatlón, Luciano Cicchitti trazó un balance de esta década de labor institucional.

cicchitti junior llegada

“La natación te vuelve un atleta polifuncional”

Jefe técnico de la selección argentina para los Juegos Olímpicos, Gustavo Roldán habó sobre entrenamiento en pileta y aguas abiertas.

nadadoras-argentinas

Día del Periodista Deportivo

Agradecemos a lo lectores y anunciantes que nos posicionaron como en el diario digital Nº1 de habla hispana sobre nadar; correr y pedalear.

horowitz gaby radio shimano mayo 2

Nuevo estadio mundialista, el hogar del Al Rayán Sports

Con capacidad para 40.000 espectadores sentados, albergará a siete partidos hasta los cuartos de final de la Copa FIFA 2022.

tiemftwgp9tajspq5dyk